Hourly Weather Roundup
Issued by NWS Central Illinois

Home | Current Version | Previous Version | Text Only | Print | Product List | Glossary On
Versions: 1 2 3 4 5 6 7 8 9 10 11 12 13 14 15 16 17 18 19 20 21 22 23 24 25 26 27 28 29 30 31 32 33 34 35 36 37 38 39 40 41 42 43 44 45 46 47 48 49 50
000
NZUS43 KILX 301010
HWRILX

AREA WEATHER ROUNDUP
NATIONAL WEATHER SERVICE, LINCOLN IL
500 AM CDT THU JUL 30 2015


CITY           SKY/WX    TMP DP  RH WIND       PRES   REMARKS
BLOOMINGTON    CLEAR     67  61  81 W9        30.11R
CHAMPAIGN      CLEAR     62  59  90 W6        30.10R
DANVILLE       CLEAR     62  60  91 W6        30.05S
DECATUR        CLEAR     69  59  70 NW7       30.10S
EFFINGHAM      CLEAR     63  58  83 CALM      30.11S
FLORA          CLEAR     65  60  83 NW5       30.10S
GALESBURG      CLEAR     64  59  85 W5        30.11S
JACKSONVILLE   CLEAR     65  61  87 W5        30.12S
LACON          CLEAR     66  59  76 CALM      30.08S
LAWRENCEVILLE  CLEAR     64  60  87 NW3       30.08S
LITCHFIELD     CLEAR     61  59  92 CALM      30.12S
$$


CITY           SKY/WX    TMP DP  RH WIND       PRES   REMARKS
LINCOLN        CLEAR     67  60  79 W3        30.10S
MACOMB         CLEAR     62  60  94 W5        30.14R
MATTOON        CLEAR     62  57  83 NW6       30.09R
MT CARMEL AP   CLEAR     64  61  88 NW3       30.08S
OLNEY-NOBLE AP CLEAR     61  59  94 NW5       30.10R
PARIS          CLEAR     62  60  93 NW3       30.09S
PEORIA         CLEAR     70  58  65 NW6       30.10S
PONTIAC        CLEAR     62  61  95 W5        30.09R
RANTOUL        CLEAR     64  61  91 W7        30.09R
ROBINSON       CLEAR     62  60  94 CALM      30.10R
SPRINGFIELD    CLEAR     63  60  90 W5        30.12R
TAYLORVILLE    CLEAR     61  59  94 CALM      30.11S
$$

...REGIONAL REPORTS...


CITY           SKY/WX    TMP DP  RH WIND       PRES   REMARKS
CHICAGO O`HARE CLEAR     68  58  70 W7        30.02S
KANKAKEE       CLEAR     62  60  93 W5        30.07R
MOLINE         FAIR      63  58  83 SW5       30.09R
MOUNT STERLING NOT AVBL
MOUNT VERNON   CLEAR     68  55  64 N5        30.11S
PITTSFIELD     CLEAR     66  61  84 CALM      30.14S
QUINCY         CLEAR     66  60  81 W6        30.13S
ROCKFORD       CLEAR     64  57  78 W3        30.06R
$$


CITY           SKY/WX    TMP DP  RH WIND       PRES   REMARKS
BURLINGTON     CLEAR     65  61  87 W5        30.12R
CEDAR RAPIDS   CLEAR     60  59  96 W6        30.10S
DES MOINES     CLEAR     64  57  78 SW5       30.14R
KIRKSVILLE     CLEAR     61  59  93 W5        30.16F
OTTUMWA        CLEAR     63  59  87 W8        30.12R
ST LOUIS       CLEAR     69  61  75 NW5       30.13R
$$


CITY           SKY/WX    TMP DP  RH WIND       PRES   REMARKS
TERRE HAUTE    CLEAR     63  59  87 CALM      30.08R
EVANSVILLE     CLEAR     71  60  68 VRB3      30.08S
INDIANAPOLIS   PTCLDY    66  58  75 NW6       30.04S
LAFAYETTE      CLEAR     61  60  97 W3        30.05S
MADISON        CLEAR     65  56  72 W6        30.01S
MILWAUKEE      CLEAR     68  54  60 W6        29.98S
$$





USA.gov is the U.S. government's official web portal to all federal, state and local government web resources and services.